STARLINK-1721

decayed
NORAD ID: 46332 Int'l Des: 2020-062 Owner: SPXS Country: US Constellation: starlink
LEOCIRCULAR

关于 STARLINK-1721

正在加载描述...

高度历史

Altitude vs Time

uPlot chart will show altitude changes over time

两行轨道根数

1 46332U 20062H 24289.37748949 .20304745 12595-4 46989-3 0 9994
2 46332 53.0038 38.4068 0007454 301.8998 171.0171 16.45881975229102
Epoch: Oct 15, 2024 • Age: 8038 hours

当前状态

Position data unavailable
发射日期 Sep 3, 2020
运行时间 5 years
衰减日期 Oct 15, 2024
类型 internet

技术详情

分类 Payload
质量 260.00 kg
干质量 248.00 kg
总质量 260.00 kg
长度 0.20 m
直径 2.80 m
跨度 9.00 m
形状 Box + pan
制造商 SPXS
平台类型 Starlink
阶段状态 Unknown Transfer Status
所有者/国家 SPXS/US

大型星座

Loading constellations...